When you browse on this site, cookies collect data to enhance your experience and personalize the content and advertising you see.
Visit our Privacy Policy to learn more. By continuing to use the site, you agree to this use of cookies and data.
  • In Sweden
  • List of Countries
  • For 7 days
  • Water Temperature
  • Satellite Maps
  • Weather Map
  • Weather Widgets
  • user-avatar
    Login

    Hourly Weather Blyth

    Today, 24 June, Monday

    Time Temperature Precipitation Wind Pressure Humidity
    00:00 +13°C° 0 mm 4 mps 764 mmHg 93%
    01:00 +13°C° 0.6 mm 4 mps 764 mmHg 94%
    02:00 +13°C° 0.6 mm 4 mps 763 mmHg 95%
    03:00 +13°C° 0.6 mm 4 mps 763 mmHg 96%
    04:00 +13°C° 1 mm 3 mps 762 mmHg 96%
    05:00 +14°C° 1 mm 3 mps 762 mmHg 97%
    06:00 +14°C° 1 mm 3 mps 762 mmHg 97%
    07:00 +14°C° 0.5 mm 3 mps 761 mmHg 96%
    08:00 +16°C° 0.5 mm 3 mps 761 mmHg 95%
    09:00 +16°C° 0.5 mm 3 mps 761 mmHg 95%
    10:00 +17°C° 0.1 mm 3 mps 761 mmHg 94%
    11:00 +17°C° 0.1 mm 3 mps 761 mmHg 93%
    12:00 +18°C° 0.1 mm 2 mps 761 mmHg 92%
    13:00 +18°C° 0 mm 2 mps 761 mmHg 90%
    14:00 +18°C° 0 mm 2 mps 761 mmHg 89%
    15:00 +19°C° 0 mm 2 mps 761 mmHg 88%
    16:00 +18°C° 0.1 mm 2 mps 761 mmHg 89%
    17:00 +18°C° 0.1 mm 3 mps 761 mmHg 90%
    18:00 +18°C° 0.1 mm 3 mps 762 mmHg 91%
    19:00 +17°C° 0 mm 3 mps 762 mmHg 92%
    20:00 +17°C° 0 mm 3 mps 763 mmHg 93%
    21:00 +16°C° 0 mm 3 mps 763 mmHg 94%
    22:00 +15°C° 0 mm 4 mps 763 mmHg 94%
    23:00 +14°C° 0 mm 4 mps 764 mmHg 94%

    Tomorrow, 25 June, Tuesday

    Time Temperature Precipitation Wind Pressure Humidity
    00:00 +14°C° 0 mm 4 mps 764 mmHg 93%
    01:00 +14°C° 0 mm 5 mps 764 mmHg 93%
    02:00 +14°C° 0 mm 5 mps 764 mmHg 92%
    03:00 +14°C° 0 mm 5 mps 764 mmHg 91%
    04:00 +14°C° 0 mm 5 mps 764 mmHg 91%
    05:00 +14°C° 0 mm 5 mps 764 mmHg 91%
    06:00 +13°C° 0 mm 6 mps 764 mmHg 91%
    07:00 +14°C° 0.2 mm 6 mps 764 mmHg 91%
    08:00 +14°C° 0.2 mm 6 mps 765 mmHg 91%
    09:00 +14°C° 0.2 mm 6 mps 765 mmHg 92%
    10:00 +13°C° 0.1 mm 6 mps 765 mmHg 90%
    11:00 +13°C° 0.1 mm 6 mps 765 mmHg 90%
    12:00 +13°C° 0.1 mm 6 mps 766 mmHg 90%
    13:00 +13°C° 0 mm 6 mps 766 mmHg 91%
    14:00 +13°C° 0 mm 6 mps 766 mmHg 92%
    15:00 +13°C° 0 mm 6 mps 766 mmHg 93%
    16:00 +13°C° 0 mm 6 mps 766 mmHg 92%
    17:00 +13°C° 0 mm 6 mps 766 mmHg 92%
    18:00 +13°C° 0 mm 6 mps 767 mmHg 92%
    19:00 +13°C° 0.1 mm 6 mps 767 mmHg 92%
    20:00 +13°C° 0.1 mm 6 mps 768 mmHg 92%
    21:00 +13°C° 0.1 mm 6 mps 768 mmHg 91%
    22:00 +11°C° 0 mm 6 mps 768 mmHg 91%
    23:00 +11°C° 0 mm 6 mps 769 mmHg 90%

    Day after tomorrow, 26 June, Wednesday

    Time Temperature Precipitation Wind Pressure Humidity
    00:00 +11°C° 0 mm 6 mps 769 mmHg 89%
    01:00 +11°C° 0 mm 6 mps 769 mmHg 89%
    02:00 +11°C° 0 mm 6 mps 769 mmHg 89%
    03:00 +11°C° 0 mm 6 mps 769 mmHg 90%
    04:00 +11°C° 0 mm 6 mps 769 mmHg 89%
    05:00 +11°C° 0 mm 6 mps 770 mmHg 88%
    06:00 +11°C° 0 mm 6 mps 770 mmHg 87%
    07:00 +11°C° 0 mm 7 mps 771 mmHg 85%
    08:00 +12°C° 0 mm 7 mps 771 mmHg 82%
    09:00 +12°C° 0 mm 7 mps 771 mmHg 80%
    10:00 +14°C° 0 mm 6 mps 771 mmHg 77%
    11:00 +15°C° 0 mm 6 mps 772 mmHg 75%
    12:00 +16°C° 0 mm 6 mps 772 mmHg 72%
    13:00 +16°C° 0 mm 6 mps 772 mmHg 69%
    14:00 +16°C° 0 mm 5 mps 772 mmHg 67%
    15:00 +16°C° 0 mm 5 mps 772 mmHg 65%
    16:00 +15°C° 0 mm 4 mps 772 mmHg 64%
    17:00 +15°C° 0 mm 4 mps 772 mmHg 64%
    18:00 +16°C° 0 mm 3 mps 772 mmHg 64%
    19:00 +13°C° 0 mm 3 mps 772 mmHg 68%
    20:00 +13°C° 0 mm 2 mps 773 mmHg 72%
    21:00 +10°C° 0 mm 2 mps 773 mmHg 75%
    22:00 +10°C° 0 mm 2 mps 773 mmHg 74%
    23:00 +10°C° 0 mm 2 mps 773 mmHg 73%

    27 June, Thursday

    Time Temperature Precipitation Wind Pressure Humidity
    00:00 +9°C° 0 mm 2 mps 773 mmHg 72%
    01:00 +9°C° 0 mm 2 mps 773 mmHg 70%
    02:00 +9°C° 0 mm 2 mps 773 mmHg 68%
    03:00 +9°C° 0 mm 2 mps 773 mmHg 67%
    04:00 +11°C° 0 mm 1 mps 772 mmHg 65%
    05:00 +12°C° 0 mm 1 mps 772 mmHg 64%
    06:00 +13°C° 0 mm 1 mps 772 mmHg 63%
    07:00 +15°C° 0 mm 1 mps 772 mmHg 61%
    08:00 +18°C° 0 mm 1 mps 772 mmHg 59%
    09:00 +20°C° 0 mm 1 mps 772 mmHg 57%
    10:00 +19°C° 0 mm 2 mps 772 mmHg 58%
    11:00 +19°C° 0 mm 2 mps 772 mmHg 59%
    12:00 +20°C° 0 mm 3 mps 772 mmHg 60%
    13:00 +19°C° 0 mm 3 mps 771 mmHg 62%
    14:00 +19°C° 0 mm 3 mps 771 mmHg 64%
    15:00 +19°C° 0 mm 4 mps 771 mmHg 66%
    16:00 +18°C° 0 mm 3 mps 771 mmHg 70%
    17:00 +17°C° 0 mm 3 mps 770 mmHg 73%
    18:00 +16°C° 0 mm 3 mps 770 mmHg 77%
    19:00 +15°C° 0 mm 2 mps 770 mmHg 81%
    20:00 +14°C° 0 mm 2 mps 770 mmHg 86%
    21:00 +12°C° 0 mm 1 mps 770 mmHg 90%
    22:00 +12°C° 0 mm 1 mps 770 mmHg 91%
    23:00 +12°C° 0 mm 1 mps 770 mmHg 92%

    28 June, Friday

    Time Temperature Precipitation Wind Pressure Humidity
    00:00 +11°C° 0 mm 1 mps 770 mmHg 93%
    01:00 +11°C° 0 mm 1 mps 770 mmHg 94%
    02:00 +11°C° 0 mm 1 mps 770 mmHg 94%
    03:00 +11°C° 0 mm 1 mps 769 mmHg 95%
    04:00 +12°C° 0 mm 1 mps 769 mmHg 94%
    05:00 +12°C° 0 mm 2 mps 769 mmHg 92%
    06:00 +13°C° 0 mm 2 mps 769 mmHg 91%
    07:00 +14°C° 0 mm 2 mps 769 mmHg 88%
    08:00 +14°C° 0 mm 3 mps 768 mmHg 84%
    09:00 +16°C° 0 mm 3 mps 768 mmHg 81%
    10:00 +16°C° 0 mm 3 mps 768 mmHg 79%
    11:00 +17°C° 0 mm 4 mps 768 mmHg 77%
    12:00 +17°C° 0 mm 4 mps 767 mmHg 76%
    13:00 +18°C° 0 mm 4 mps 767 mmHg 75%
    14:00 +18°C° 0 mm 4 mps 766 mmHg 75%
    15:00 +17°C° 0 mm 5 mps 766 mmHg 75%
    16:00 +17°C° 0 mm 4 mps 766 mmHg 76%
    17:00 +17°C° 0 mm 4 mps 765 mmHg 77%
    18:00 +17°C° 0 mm 4 mps 765 mmHg 78%
    19:00 +15°C° 0 mm 5 mps 765 mmHg 80%
    20:00 +14°C° 0 mm 5 mps 764 mmHg 82%
    21:00 +13°C° 0 mm 6 mps 764 mmHg 84%
    22:00 +13°C° 0 mm 6 mps 763 mmHg 84%
    23:00 +12°C° 0 mm 5 mps 763 mmHg 84%

    29 June, Saturday

    Time Temperature Precipitation Wind Pressure Humidity
    00:00 +12°C° 0 mm 4 mps 763 mmHg 84%
    01:00 +12°C° 0 mm 4 mps 762 mmHg 83%
    02:00 +12°C° 0 mm 4 mps 761 mmHg 82%
    03:00 +12°C° 0 mm 4 mps 761 mmHg 81%
    04:00 +13°C° 0 mm 4 mps 760 mmHg 81%
    05:00 +14°C° 0 mm 4 mps 760 mmHg 80%
    06:00 +15°C° 0 mm 4 mps 759 mmHg 80%
    07:00 +15°C° 0.6 mm 4 mps 759 mmHg 82%
    08:00 +17°C° 0.6 mm 4 mps 758 mmHg 83%
    09:00 +18°C° 0.6 mm 4 mps 758 mmHg 85%
    10:00 +20°C° 0.2 mm 4 mps 757 mmHg 80%
    11:00 +22°C° 0.2 mm 3 mps 757 mmHg 76%
    12:00 +25°C° 0.2 mm 3 mps 757 mmHg 72%
    13:00 +25°C° 0 mm 3 mps 756 mmHg 68%
    14:00 +25°C° 0 mm 4 mps 756 mmHg 63%
    15:00 +25°C° 0 mm 5 mps 756 mmHg 59%
    16:00 +23°C° 0 mm 5 mps 756 mmHg 63%
    17:00 +22°C° 0 mm 5 mps 756 mmHg 66%
    18:00 +20°C° 0 mm 6 mps 756 mmHg 69%
    19:00 +19°C° 0 mm 5 mps 756 mmHg 73%
    20:00 +17°C° 0 mm 5 mps 756 mmHg 77%
    21:00 +15°C° 0 mm 5 mps 756 mmHg 81%
    22:00 +15°C° 0 mm 5 mps 756 mmHg 82%
    23:00 +15°C° 0 mm 5 mps 756 mmHg 83%
    Show more